Find Starlink 3882

NORAD ID: 52475 Int'l Des: 2022-049 Owner: SPXS Country: US Constellation: starlink operational
LEOCIRCULAR

現在のビュー

3D地球を読み込み中...

About Starlink 3882

Starlink 3882 (NORAD 52475) is a starlink constellation satellite (v1.5) launched May 6, 2022 by SPXS of US. It operates in LEO, CIRCULAR orbit with a mass of 297.00 kg.

次回通過

Passes for default location (London). Set your location on the main map for personalized predictions.

高度履歴

Loading altitude history...

軌道要素

1 52475U 22049AA 26262.60394367 .00000353 00000-0 21581-4 0 9998
2 52475 53.1601 257.5618 0001355 66.0183 294.0961 15.34389188241674
Epoch: Sep 19, 2026 • Age: 28 hours

現在のステータス

高度 464.2 km
遠地点 / 近地点 N/A
速度 7.64 km/s
衛星直下点 -4.89°S, 30.34°W
打ち上げ日 May 6, 2022
運用期間 4.3 years
タイプ internet

技術仕様

分類 Payload
質量 297.00 kg
乾燥質量 220.00 kg
長さ 0.20 m
スパン 9.00 m
形状 ? Box + pan
製造者 SPXS
バスタイプ Starlink
フェーズステータス In Orbit
所有者/国 SPXS/US

Most Searched